Milan, Italy

11:03 AM CEST on September 26, 2016 (GMT +0200)
Malpensa

Weather History for LIMC - June, 2013

Change the Weather History Date:

Friday, June 7, 2013

  Actual Average Record
Temperature  
Mean Temperature 68 °F -  
Max Temperature 77 °F 75 °F 87 °F (2015)
Min Temperature 60 °F 55 °F 50 °F (2001)
Cooling Degree Days 4    
Growing Degree Days 18 (Base 50)    
Moisture  
Dew Point 57 °F    
Average Humidity 66    
Maximum Humidity 94    
Minimum Humidity 47    
Precipitation  
Precipitation 0.00 in - - ()
Sea Level Pressure  
Sea Level Pressure 30.05 in    
Wind  
Wind Speed 3 mph ()    
Max Wind Speed 7 mph    
Max Gust Speed -    
Visibility 6.2 miles    
Events      
Averages and records for this station are not official NWS values.
T = Trace of Precipitation, MM = Missing Value Source: Averaged Metar Reports

Daily Weather History Graph

Daily Weather History Graph

Search for Another Location

Airport or City:

Trip Planner

Search our weather history database for the weather conditions in past years. The results will help you decide how hot, cold, wet, or windy it might be!

Date:

Astronomy

Jun. 07, 2013 Rise Set
Actual Time 5:36 AM CEST 9:11 PM CEST
Civil Twilight 4:59 AM CEST 9:49 PM CEST
Nautical Twilight 4:09 AM CEST 10:39 PM CEST
Astronomical Twilight 3:03 AM CEST 11:45 PM CEST
Moon 4:51 AM CEST (6/7) 8:08 PM CEST (6/7)
Length of Visible Light 16h 50m
Length of Day
15h 35m
Waning Crescent, 1% of the Moon is Illuminated
Jun 7
Waning Crescent
Jun 8
New
Jun 16
First Quarter
Jun 23
Full
Jun 30
Last Quarter

Hourly Weather History & Observations

Time (CEST) Temp. Dew Point Humidity Pressure Visibility Wind Dir Wind Speed Gust Speed Precip Events Conditions
12:20 AM 64.4 °F 59.0 °F 83% 30.09 in 6.2 mi ENE 3.5 mph - N/A   Mostly Cloudy
12:50 AM 64.4 °F 57.2 °F 77% 30.06 in 6.2 mi East 3.5 mph - N/A   Scattered Clouds
1:20 AM 64.4 °F 57.2 °F 77% 30.09 in 6.2 mi Variable 2.3 mph - N/A   Scattered Clouds
1:50 AM 64.4 °F 55.4 °F 73% 30.09 in 6.2 mi Variable 2.3 mph - N/A   Scattered Clouds
2:20 AM 66.2 °F 57.2 °F 73% 30.09 in 6.2 mi WNW 3.5 mph - N/A   Scattered Clouds
2:50 AM 64.4 °F 57.2 °F 77% 30.09 in 6.2 mi WNW 3.5 mph - N/A   Scattered Clouds
3:20 AM 64.4 °F 57.2 °F 77% 30.09 in 6.2 mi WNW 3.5 mph - N/A   Scattered Clouds
3:50 AM 62.6 °F 57.2 °F 82% 30.09 in 6.2 mi West 4.6 mph - N/A   Scattered Clouds
4:20 AM 64.4 °F 59.0 °F 83% 30.09 in 6.2 mi WNW 3.5 mph - N/A   Scattered Clouds
4:50 AM 62.6 °F 57.2 °F 82% 30.09 in 6.2 mi Variable 2.3 mph - N/A   Scattered Clouds
5:20 AM 62.6 °F 57.2 °F 82% 30.06 in 6.2 mi Variable 2.3 mph - N/A   Mostly Cloudy
6:20 AM 60.8 °F 57.2 °F 88% 30.06 in 6.2 mi Variable 2.3 mph - N/A   Scattered Clouds
6:50 AM 60.8 °F 59.0 °F 94% 30.09 in - NW 3.5 mph - N/A   Clear
7:20 AM 62.6 °F 59.0 °F 88% 30.09 in - WNW 3.5 mph - N/A   Clear
7:50 AM 64.4 °F 59.0 °F 83% 30.09 in - WNW 4.6 mph - N/A   Clear
8:20 AM 66.2 °F 59.0 °F 78% 30.09 in - WNW 3.5 mph - N/A   Clear
8:50 AM 68.0 °F 59.0 °F 73% 30.09 in - Variable 3.5 mph - N/A   Clear
9:50 AM 71.6 °F 55.4 °F 57% 30.06 in - Variable 2.3 mph - N/A   Clear
10:20 AM 71.6 °F 55.4 °F 57% 30.06 in - Variable 2.3 mph - N/A   Clear
10:50 AM 73.4 °F 57.2 °F 57% 30.06 in - SW 3.5 mph - N/A   Clear
11:20 AM 73.4 °F 57.2 °F 57% 30.06 in - South 4.6 mph - N/A   Clear
11:50 AM 73.4 °F 57.2 °F 57% 30.06 in 6.2 mi South 5.8 mph - N/A   Scattered Clouds
12:20 PM 75.2 °F 57.2 °F 53% 30.06 in 6.2 mi SW 4.6 mph - N/A   Scattered Clouds
12:50 PM 75.2 °F 57.2 °F 53% 30.06 in 6.2 mi SSW 3.5 mph - N/A   Scattered Clouds
1:20 PM 77.0 °F 57.2 °F 50% 30.06 in 6.2 mi WSW 3.5 mph - N/A   Scattered Clouds
1:50 PM 77.0 °F 57.2 °F 50% 30.04 in 6.2 mi SW 4.6 mph - N/A   Scattered Clouds
2:20 PM 77.0 °F 55.4 °F 47% 30.04 in 6.2 mi WSW 4.6 mph - N/A   Partly Cloudy
2:50 PM 77.0 °F 55.4 °F 47% 30.01 in 6.2 mi Variable 3.5 mph - N/A   Partly Cloudy
3:20 PM 77.0 °F 55.4 °F 47% 30.01 in 6.2 mi WSW 4.6 mph - N/A   Partly Cloudy
3:50 PM 77.0 °F 55.4 °F 47% 30.01 in 6.2 mi SSW 4.6 mph - N/A   Partly Cloudy
4:20 PM 77.0 °F 55.4 °F 47% 30.01 in 6.2 mi South 5.8 mph - N/A   Partly Cloudy
4:50 PM 77.0 °F 55.4 °F 47% 30.01 in 6.2 mi SSW 6.9 mph - N/A   Partly Cloudy
5:20 PM 77.0 °F 55.4 °F 47% 30.01 in 6.2 mi SSW 5.8 mph - N/A   Scattered Clouds
5:50 PM 75.2 °F 57.2 °F 53% 30.01 in 6.2 mi SW 4.6 mph - N/A   Scattered Clouds
6:20 PM 75.2 °F 55.4 °F 50% 30.01 in 6.2 mi WSW 3.5 mph - N/A   Scattered Clouds
6:50 PM 77.0 °F 55.4 °F 47% 30.01 in 6.2 mi WSW 4.6 mph - N/A   Scattered Clouds
7:20 PM 73.4 °F 55.4 °F 53% 30.01 in 6.2 mi West 6.9 mph - N/A   Scattered Clouds
7:50 PM 75.2 °F 57.2 °F 53% 30.01 in - West 5.8 mph - N/A   Clear
8:20 PM 73.4 °F 55.4 °F 53% 30.01 in - Variable 2.3 mph - N/A   Clear
8:50 PM 69.8 °F 57.2 °F 64% 30.01 in - Variable 3.5 mph - N/A   Clear
9:20 PM 66.2 °F 57.2 °F 73% 30.04 in - Variable 1.2 mph - N/A   Clear
9:50 PM 66.2 °F 59.0 °F 78% 30.04 in - West 3.5 mph - N/A   Clear
10:20 PM 64.4 °F 57.2 °F 77% 30.04 in - Variable 2.3 mph - N/A   Clear
10:50 PM 62.6 °F 57.2 °F 82% 30.04 in - Variable 2.3 mph - N/A   Clear
11:20 PM 62.6 °F 59.0 °F 88% 30.04 in - WNW 4.6 mph - N/A   Clear
11:50 PM 62.6 °F 59.0 °F 88% 30.04 in - WNW 4.6 mph - N/A   Clear